Location: Knowlton
(51.2333°N, 1.2667°E)
Time: 10:46:47
(UTC+00:00)

Cosmos 405 Rocket - Pass Details

Date: 18 April 2021
Orbit: 489 x 553 km, 81.3° (Epoch: 16 May)

Event Time Altitude Azimuth Distance (km) Brightness Sun altitude
Rises 19:27:40 0° 355° (N) 2,740 6.8 -5.4°
Reaches altitude 10° 19:30:06 10° 7° (N) 1,835 5.8 -5.7°
Maximum altitude 19:33:38 28° 68° (ENE) 1,036 3.9 -6.2°
Drops below altitude 10° 19:37:06 10° 129° (SE) 1,797 4.8 -6.7°
Enters shadow 19:37:35 - 132° (SE) 1,970 5.0 -6.8°
